Regional Weather Roundup
Issued by NWS

Home | Current Version | Previous Version | Text Only | Print | Product List | Glossary On
Versions: 1 2 3 4 5 6 7 8 9 10 11 12 13 14 15 16 17 18 19 20 21 22 23 24 25 26 27 28 29 30 31 32 33 34 35 36 37 38 39 40 41 42 43 44 45 46 47 48 49 50
166
ASUS44 KLIX 011210
RWRLA
LOUISIANA WEATHER ROUNDUP
NATIONAL WEATHER SERVICE NEW ORLEANS LA
700 AM CDT WED OCT 01 2014

NOTE: "FAIR" INDICATES FEW OR NO CLOUDS BELOW 12,000 FEET WITH NO
      SIGNIFICANT WEATHER AND/OR OBSTRUCTIONS TO VISIBILITY.
      SKY/WX - SKY CONDITION AND SIGNIFICANT WEATHER.
      TMP - AIR TEMPERATURE.    DP   - DEWPOINT TEMPERATURE.
      RH  - RELATIVE HUMIDITY.  PRES - PRESSURE.
      HX  - HEAT INDEX.         WCI  - WIND CHILL INDEX.

*  THESE STATIONS ARE NOT NWS OR FAA STATIONS AND ARE NOT UNDER
   NWS QUALITY CONTROL.

LAZ040-048-061>063-065-066-069-011300-
SOUTHEAST LOUISIANA

CITY           SKY/WX    TMP DP  RH WIND       PRES   REMARKS
N.O. AUDUBON     N/A     76  73  92 MISG        N/A
6HR MIN TEMP:  75; 6HR MAX TEMP:  76;

N.O. INTL ARPT PTCLDY    76  71  85 E5        29.89R
6HR MIN TEMP:  75; 6HR MAX TEMP:  77;

N.O. LAKEFRONT CLEAR     76  71  85 E7        29.90R
6HR MIN TEMP:  75; 6HR MAX TEMP:  77;

N.O. DOWNTOWN* FAIR      77  70  78 SE6       29.90S
6HR MIN TEMP:  77; 6HR MAX TEMP:  77;

SLIDELL        CLEAR     68  65  90 CALM      29.90S
6HR MIN TEMP:  67; 6HR MAX TEMP:  71;

BATON ROUGE    PTCLDY    72  71  97 E6        29.89R FOG
6HR MIN TEMP:  71; 6HR MAX TEMP:  74;

BOOTHVILLE     CLEAR     77  74  90 E3        29.90R
6HR MIN TEMP:  76; 6HR MAX TEMP:  77;

BELLE CHASSE   PTCLDY    73  69  87 E3        29.89S
6HR MIN TEMP:  70; 6HR MAX TEMP:  77;

BOGALUSA*      FOG       67  65  91 CALM      29.94R VSB 1/2
6HR MIN TEMP:  67; 6HR MAX TEMP:  71;

GALLIANO*      NOT AVBL
NEW ROADS*     CLOUDY    73  72  98 E3        29.89R FOG
6HR MIN TEMP:  72; 6HR MAX TEMP:  75;

GONZALES*      FAIR      72  72 100 CALM      29.88S
6HR MIN TEMP:  71; 6HR MAX TEMP:  75;

HAMMOND*       CLEAR     72  68  88 E3        29.92R
HOUMA*         PTCLDY   N/A N/A N/A NE7       29.88R FOG
PORT FOURCHON* PTSUNNY   81  75  83 E9        29.91S

$$

LAZ041-044-053-054-011300-
SOUTHWEST LOUISIANA

CITY           SKY/WX    TMP DP  RH WIND       PRES   REMARKS
LAKE CHARLES   LGT RAIN  75  73  93 E5        29.84S
6HR MIN TEMP:  74; 6HR MAX TEMP:  77; 6HR PCP:  0.08;

LAFAYETTE      CLOUDY    75  75 100 VRB3      29.87S
6HR MIN TEMP:  75; 6HR MAX TEMP:  75;

PATTERSON      PTCLDY    73  73 100 E5        29.89S
6HR MIN TEMP:  73; 6HR MAX TEMP:  75;

SALT POINT       N/A     79  76  90 VRB3      29.85S
6HR MIN TEMP:  78; 6HR MAX TEMP:  79; 6HR PCP:  0.02;

NEW IBERIA     MOCLDY    76  74  93 E5        29.87R
6HR MIN TEMP:  75; 6HR MAX TEMP:  77;

CHENAULT AIRPK NOT AVBL

$$

LAZ027-028-011300-
CENTRAL LOUISIANA

CITY           SKY/WX    TMP DP  RH WIND       PRES   REMARKS
FORT POLK      CLOUDY    74  73  96 SE6       29.86R FOG
6HR MIN TEMP:  73; 6HR MAX TEMP:  75;

ALEXANDRIA INT CLOUDY    74  73  97 SE6       29.85S FOG
6HR MIN TEMP:  73; 6HR MAX TEMP:  75;

ALEXANDRIA     CLOUDY    73  72  96 SE5       29.87S
6HR MIN TEMP:  70; 6HR MAX TEMP:  74;


$$

LAZ001-002-011300-
NORTHWEST LOUISIANA

CITY           SKY/WX    TMP DP  RH WIND       PRES   REMARKS
SHREVEPORT     MOCLDY    74  72  93 S6        29.85R
6HR MIN TEMP:  72; 6HR MAX TEMP:  77;

BARKSDALE AFB  CLEAR     70  69  98 S6        29.85S
6HR MIN TEMP:  70; 6HR MAX TEMP:  74;

DTN SHREVEPORT MOCLDY    73  69  87 SE6       29.85R
6HR MIN TEMP:  73; 6HR MAX TEMP:  77;


$$

LAZ014-016-011300-
NORTHEAST LOUISIANA

CITY           SKY/WX    TMP DP  RH WIND       PRES   REMARKS
MONROE         PTCLDY    72  70  93 CALM      29.89R
6HR MIN TEMP:  71; 6HR MAX TEMP:  75;

TALLULAH       PTCLDY    72  68  87 SE5       29.90R
6HR MIN TEMP:  72; 6HR MAX TEMP:  75;


$$




USA.gov is the U.S. government's official web portal to all federal, state and local government web resources and services.